AirNav   Air Wisconsin pilot careers
 
 1666 users online  

3G8 Gen-Airpark Airport
Geneseo, Illinois, USA

GOING TO GENESEO?


FAA INFORMATION EFFECTIVE 11 OCTOBER 2018

Location

FAA Identifier: 3G8
Lat/Long: 41-26-23.2000N / 090-06-36.2000W
41-26.386667N / 090-06.603333W
41.4397778 / -90.1100556
(estimated)
Elevation: 645 ft. / 197 m (estimated)
Variation: 01E (1985)
From city: 2 miles SE of GENESEO, IL
Time zone: UTC -5 (UTC -6 during Standard Time)
Zip code: 61254

Airport Operations

Airport use: Open to the public
Activation date: 09/1980
Control tower: no
ARTCC: CHICAGO CENTER
FSS: KANKAKEE FLIGHT SERVICE STATION
NOTAMs facility: IKK (NOTAM-D service available)
Attendance: IREG
Pattern altitude: 1445 ft. MSL
Wind indicator: yes
Segmented circle: no
Lights: SS-SR

Airport Communications

CTAF: 122.9
WX ASOS at MLI (18 nm W): PHONE 309-799-7096

Nearby radio navigation aids

VOR radial/distance  VOR name  Freq  Var
CVAr130/23.3DAVENPORT VORTAC113.8004E
MZVr068/24.8MOLINE VOR/DME114.4005E
BDFr306/28.9BRADFORD VORTAC114.7000E
GBGr023/33.5GALESBURG VOR/DME109.8003E

Airport Services

Parking: tiedowns

Runway Information

Runway 9/27

Dimensions: 2568 x 120 ft. / 783 x 37 m
Surface: turf, in good condition
Runway edge lights: non-standard
NSTD LIRL; NSTD SPACING & INTST.
RUNWAY 9  RUNWAY 27
Latitude: 41-26.391913N41-26.379733N
Longitude: 090-06.883737W090-06.322038W
Elevation: 635.0 ft.634.6 ft.
Traffic pattern: leftleft
Displaced threshold: 193 ft.
09/27 DSPLCD THLDS MKD WITH A 10 FT STRIP OF GRAVEL OUTWARD FM BOTH SIDES OF RY.
285 ft.
Obstructions: 12 ft. road
APCH RATIO 20:1 TO DSPLCD THR.
15 ft. road
APCH RATIO 20:1 TO DSPLCD THLD.

Airport Ownership and Management from official FAA records

Ownership: Privately-owned
Owner: GEN-AIR INC
20035 1700 ST EAST
GENESEO, IL 61254
Phone (309) 912-0437
Manager: KENT JOHNSON
GEN-AIR INC, 20035 1700 ST EAST
GENESEO, IL 61254
Phone (309) 912-0437

Airport Operational Statistics

Aircraft based on the field: 16
Single engine airplanes: 14
Helicopters: 1
Gliders airplanes: 1
    
Aircraft operations: avg 96/week *
80% local general aviation
20% transient general aviation
* for 12-month period ending 31 July 2018

Additional Remarks

PARACHUTE ACTIVITY ON & INVOF ARPT.
OBSTN FENCE 30 FT NORTH APCH END RY 09 (6 FT AGL) NOT LGTD.

Instrument Procedures

There are no published instrument procedures at 3G8.

Some nearby airports with instrument procedures:

KEZI - Kewanee Municipal Airport (16 nm SE)
KMLI - Quad City International Airport (18 nm W)
KDVN - Davenport Municipal Airport (24 nm NW)
KCWI - Clinton Municipal Airport (25 nm NW)
KSQI - Whiteside County Airport-Jos H Bittorf Field (27 nm NE)
 
Loc | Ops | Rwys | IFR | FBO | Links
Com | Nav | Svcs | Stats | Notes


 
Area around 3G8 (Gen-Airpark Airport)
 
Road maps at: MapQuest Bing Google
 
Aerial photo
WARNING: Photo may not be current or correct
Aerial photo of 3G8 (Gen-Airpark Airport)
Do you have a better or more recent aerial photo of Gen-Airpark Airport that you would like to share? If so, please send us your photo.

 
Sectional chart

 
Airport distance calculator
Flying to Gen-Airpark Airport? Find the distance to fly.

From to 3G8

Sunrise and sunset
Times for 16-Oct-2018
 Local
(UTC-5)
 Zulu
(UTC)
Morning civil twilight06:4711:47
Sunrise07:1412:14
Sunset18:1823:18
Evening civil twilight18:4623:46

Current date and time
Zulu (UTC)  16-Oct-2018 18:22:10
Local (UTC-5)  16-Oct-2018 13:22:10
 
METAR
KMLI 
18nm W 
161752Z 26018G26KT 10SM CLR 14/01 A3010 RMK AO2 PK WND 24029/1716 SLP196 T01390011 10139 20017 58023
KDVN 
24nm NW 
161752Z AUTO 24014G27KT 10SM CLR 14/M01 A3012 RMK AO2 PK WND 24028/1713 SLP199 T01391011 10139 20011 58017 $
KCWI 
24nm N 
161756Z AUTO 26014G22KT 10SM CLR 14/01 A3009 RMK AO2 SLP218 T01390006 10139 20000 56021
KSQI 
27nm NE 
161756Z AUTO 24015G22KT 10SM CLR 13/00 A3008 RMK AO2 SLP212 6//// T01280000 10128 21011 58029 PNO $
KGBG 
34nm SW 
161755Z AUTO 24012G20KT 10SM CLR 12/00 A3016 RMK AO2 T01200004 10120 21012
KSFY 
36nm N 
161757Z AUTO 24014G17KT 10SM CLR 13/00 A3008 RMK AO2
TAF
KMLI 
18nm W 
161720Z 1618/1718 26016G24KT P6SM SKC TEMPO 1618/1619 23016G24KT FM162300 28007KT P6SM SKC FM170400 33011KT P6SM SKC
NOTAMs
Click for the latest NOTAMs
NOTAMs are issued by the DoD/FAA and will open in a separate window not controlled by AirNav.

 

 
 

Would you like to see your business listed on this page?

 If your business provides an interesting product or service to pilots, flight crews, aircraft, or users of the Gen-Airpark Airport, you should consider listing it here.  To start the listing process, click on the button below
 
Add a business
 

Other Pages about Gen-Airpark Airport

Update a link
 
Copyright © AirNav, LLC. All rights reserved. Privacy Policy  Contact